Regional Weather Roundup
Issued by NWS

Home | Current Version | Previous Version | Graphics & Text | Print | Product List | Glossary On
Versions: 1 2 3 4 5 6 7 8 9 10 11 12 13 14 15 16 17 18 19 20 21 22 23 24 25 26 27 28 29 30 31 32 33 34 35 36 37 38 39 40 41 42 43 44 45 46 47 48 49 50
000
ASUS45 KCYS 240810
RWRWY

WYOMING REGIONAL WEATHER ROUNDUP
NATIONAL WEATHER SERVICE CHEYENNE WY
200 AM MDT TUE MAY 24 2016

NOTE:  "FAIR" INDICATES FEW OR NO CLOUDS BELOW 12,000 FEET
WITH NO SIGNIFICANT WEATHER AND/OR OBSTRUCTIONS TO VISIBILITY.

WYZ001-240900-
YELLOWSTONE NATIONAL PARK

CITY           SKY/WX    TMP DP  RH WIND       PRES   REMARKS
LK YELLOWSTONE   N/A     28  25  88 NW3       29.97S
W YELLOWSTONE  NOT AVBL

$$
WYZ002>013-054>058-071-098>099-240900-
NORTHERN WYOMING

CITY           SKY/WX    TMP DP  RH WIND       PRES   REMARKS
JACKSON        FAIR      34  30  86 E5        29.94S WCI  30
CODY           FAIR      43  36  75 CALM      29.89S
GREYBULL       FAIR      45  34  65 NW6       29.85S
WORLAND        FAIR      42  32  67 S7        29.86R
SHERIDAN       FAIR      35  31  85 SW5       29.88F WCI  31
BUFFALO        FAIR      42  32  67 W3        29.91F
GILLETTE       FAIR      32  30  92 S3        29.89S
HULETT         FAIR      46  32  57 E5        29.89S
NEWCASTLE      FAIR      43  27  52 CALM      29.87S

$$
WYZ014>020-022>026-101>103-240900-
CENTRAL WYOMING

CITY           SKY/WX    TMP DP  RH WIND       PRES   REMARKS
BIG PINEY      FAIR      32  28  85 CALM      29.98S
PINEDALE       FAIR      32  30  93 CALM      29.98S
DUBOIS         FAIR      32  25  74 W10       29.94S WCI  24
LANDER         FAIR      43  28  55 CALM      29.89F
RIVERTON       FAIR      43  26  51 W6        29.91S
CASPER         FAIR      37  29  72 NW9       29.91S WCI  30
DOUGLAS        FAIR      40  33  76 SE3       29.92S

$$
WYZ021-027>030-104>119-240900-
SOUTHERN WYOMING

CITY           SKY/WX    TMP DP  RH WIND       PRES   REMARKS
EVANSTON       MOCLDY    42  29  59 E6        29.93F
KEMMERER         N/A     34  28  80 N6        29.97S WCI  29
FORT BRIDGER   CLOUDY    46  32  57 SE7       29.96F
ROCK SPRINGS   FAIR      45  32  60 SE7       29.96S
DIXON          FAIR      41  33  72 E9        29.97F
RAWLINS        FAIR      37  30  75 CALM      29.97F
SARATOGA       FAIR      37  32  81 SE9       29.99F WCI  31
LARAMIE        FAIR      32  29  88 W7        29.99F WCI  26
CHEYENNE       FAIR      43  38  82 W6        29.97F
TORRINGTON     FAIR      46  41  82 E3        29.89F
PINE BLUFFS    FAIR      37  36  93 CALM      29.95S

$$



USA.gov is the U.S. government's official web portal to all federal, state and local government web resources and services.